DW4005 Mahon ES current weather conditions

sailwx.info

Wind from 149 at 0 knots gusting 4

Air temperature 28.9° C

Last reported at 2015-Aug-05 07:47 UTC.
Time now 2015-Aug-05 08:31 UTC

Location: N 39°56' E 004°08'.
View on Google Maps.

See reports from other nearby stations

  
Tides and Currents Weather Stations Pressure Air Temp Water Temp Dewpoint Dewpoint Depression Visibility Wind Speed Wind Dir Waves Ship Positions
date/time (UTC)wind fromknots sea level pressurealtimeterstation pressurevisibilityair tempwater tempwave heightnotes
2015-Aug-05 07:47 149 0 gusting 4 28.9
2015-Aug-05 07:32 149 0 gusting 3 29.4
2015-Aug-05 07:17 149 0 gusting 2 28.9
2015-Aug-05 07:01 149 0 gusting 1 28.3
2015-Aug-05 06:46 149 0 gusting 3 27.2
2015-Aug-05 06:31 149 0 gusting 1 26.7
2015-Aug-05 06:01 149 25.0
2015-Aug-05 05:46 149 25.0
2015-Aug-05 05:31 149 0 gusting 1 25.0
2015-Aug-05 05:16 149 25.0
2015-Aug-05 05:01 149 25.0
2015-Aug-05 04:46 149 24.4
2015-Aug-05 04:31 149 24.4
2015-Aug-05 04:16 149 24.4
2015-Aug-05 04:01 149 24.4
2015-Aug-05 03:46 149 24.4
2015-Aug-05 03:30 149 24.4
2015-Aug-05 03:15 149 25.0
2015-Aug-05 03:00 149 24.4
2015-Aug-05 02:45 149 24.4
2015-Aug-05 02:30 149 24.4
2015-Aug-05 02:15 149 24.4
2015-Aug-05 02:00 149 24.4
2015-Aug-05 01:47 149 24.4
2015-Aug-05 01:30 149 24.4
2015-Aug-05 01:15 149 24.4
2015-Aug-05 01:00 149 25.0
2015-Aug-05 00:45 149 25.0
2015-Aug-05 00:15 153 1 gusting 6 25.6
2015-Aug-05 00:00 153 0 gusting 4 25.6
2015-Aug-04 23:44 158 1 gusting 5 25.6
2015-Aug-04 23:29 153 2 gusting 6 25.6
2015-Aug-04 23:14 165 4 gusting 7 25.6
2015-Aug-04 22:59 159 4 gusting 7 25.6
2015-Aug-04 22:44 155 4 gusting 7 25.6
2015-Aug-04 22:29 159 3 gusting 6 25.6
2015-Aug-04 22:14 147 0 gusting 5 25.6
2015-Aug-04 21:59 148 2 gusting 6 25.6
2015-Aug-04 21:44 146 2 gusting 6 25.6
2015-Aug-04 21:29 155 4 gusting 7 25.6
2015-Aug-04 21:14 164 4 gusting 7 25.6
2015-Aug-04 20:59 187 4 gusting 7 25.6
2015-Aug-04 20:44 184 5 gusting 8 25.6
2015-Aug-04 20:29 186 5 gusting 8 25.6
2015-Aug-04 20:14 182 4 gusting 6 26.1
2015-Aug-04 19:59 183 2 gusting 6 26.1
2015-Aug-04 19:44 173 1 gusting 4 26.1
2015-Aug-04 19:14 165 0 gusting 4 26.1
2015-Aug-04 18:59 163 0 gusting 5 26.7
2015-Aug-04 18:44 170 1 gusting 5 26.7
2015-Aug-04 18:29 169 2 gusting 5 27.2
2015-Aug-04 18:14 154 1 gusting 4 27.2
2015-Aug-04 17:59 138 1 gusting 4 27.2
2015-Aug-04 17:43 145 2 gusting 6 27.2
2015-Aug-04 17:29 133 2 gusting 5 27.8
2015-Aug-04 17:17 130 2 gusting 6 27.8
2015-Aug-04 16:58 140 3 gusting 6 27.8
2015-Aug-04 16:43 140 2 gusting 6 28.3
2015-Aug-04 16:28 127 1 gusting 5 28.3
2015-Aug-04 16:13 140 1 gusting 5 28.9
2015-Aug-04 15:58 092 0 gusting 5 28.9
2015-Aug-04 15:28 092 0 gusting 5 29.4
2015-Aug-04 15:13 115 1 gusting 5 29.4
2015-Aug-04 14:58 104 1 gusting 5 28.9
2015-Aug-04 14:43 110 1 gusting 4 29.4
2015-Aug-04 14:28 106 1 gusting 4 29.4
2015-Aug-04 14:13 125 0 gusting 5 29.4
2015-Aug-04 13:58 071 1 gusting 5 31.1
2015-Aug-04 13:43 042 2 gusting 5 31.1
2015-Aug-04 13:29 339 1 gusting 4 32.2
2015-Aug-04 13:13 331 2 gusting 5 32.8
2015-Aug-04 12:58 348 1 gusting 5 32.8
2015-Aug-04 12:43 319 1 gusting 6 32.8
2015-Aug-04 12:28 337 2 gusting 6 32.8
2015-Aug-04 12:14 310 5 gusting 8 33.3
2015-Aug-04 11:58 338 4 gusting 7 34.4
2015-Aug-04 11:43 155 1 gusting 4 33.9
2015-Aug-04 11:28 149 0 gusting 7 32.8
2015-Aug-04 11:13 150 2 gusting 6 32.8
2015-Aug-04 10:58 155 4 gusting 7 31.7
2015-Aug-04 10:43 153 4 gusting 6 31.7
2015-Aug-04 10:27 172 3 gusting 7 31.7
2015-Aug-04 10:12 140 1 gusting 6 31.1
2015-Aug-04 09:57 114 3 gusting 6 31.7
2015-Aug-04 09:42 156 4 gusting 7 30.6
2015-Aug-04 09:27 128 5 gusting 8 29.4
2015-Aug-04 09:12 178 4 gusting 7 29.4
2015-Aug-04 08:57 164 3 gusting 7 29.4
2015-Aug-04 08:42 107 2 gusting 6 28.9
2015-Aug-04 08:27 130 4 gusting 6 28.9
2015-Aug-04 08:12 146 2 gusting 6 28.9
2015-Aug-04 07:57 163 1 gusting 6 28.3
2015-Aug-04 07:42 136 2 gusting 6 28.3
2015-Aug-04 07:27 142 1 gusting 5 27.8
2015-Aug-04 07:12 158 2 gusting 6 27.2
2015-Aug-04 06:56 132 1 gusting 6 26.7
2015-Aug-04 06:41 143 3 gusting 5 26.1
2015-Aug-04 06:26 153 26.1
2015-Aug-04 06:11 153 0 gusting 3 25.0
2015-Aug-04 05:56 150 25.0
2015-Aug-04 05:41 154 0 gusting 3 25.0
2015-Aug-04 05:26 154 1 gusting 3 25.0
2015-Aug-04 05:11 154 24.4
2015-Aug-04 04:57 154 24.4
2015-Aug-04 04:41 154 23.9
2015-Aug-04 04:26 154 23.9
2015-Aug-04 04:11 151 23.9
2015-Aug-04 03:56 151 23.9
2015-Aug-04 03:41 151 24.4
2015-Aug-04 03:25 151 24.4
2015-Aug-04 03:10 151 24.4
2015-Aug-04 02:55 151 24.4
2015-Aug-04 02:40 151 0 gusting 4 25.0
2015-Aug-04 02:25 151 25.0
2015-Aug-04 02:10 161 1 gusting 4 25.0
2015-Aug-04 01:55 182 0 gusting 3 24.4
2015-Aug-04 01:40 182 25.0
2015-Aug-04 01:25 182 24.4
2015-Aug-04 01:10 182 25.0
2015-Aug-04 00:55 182 0 gusting 4 25.0
2015-Aug-04 00:40 186 0 gusting 6 24.4
2015-Aug-04 00:25 179 1 gusting 6 25.0
2015-Aug-04 00:10 164 2 gusting 5 24.4
2015-Aug-03 23:55 173 1 gusting 5 24.4
2015-Aug-03 23:40 182 1 gusting 5 24.4
2015-Aug-03 23:25 177 2 gusting 5 25.0
2015-Aug-03 23:10 172 2 gusting 5 25.0
2015-Aug-03 22:55 172 1 gusting 3 24.4
2015-Aug-03 22:42 171 0 gusting 3 24.4
2015-Aug-03 22:25 146 1 gusting 4 24.4
2015-Aug-03 22:10 141 3 gusting 6 25.0
2015-Aug-03 21:55 173 2 gusting 5 25.0
2015-Aug-03 21:40 177 1 gusting 5 25.0
2015-Aug-03 21:25 153 1 gusting 4 25.0
2015-Aug-03 21:10 158 2 gusting 5 25.0
2015-Aug-03 20:55 178 0 gusting 3 25.0
2015-Aug-03 20:40 179 0 gusting 2 25.0
2015-Aug-03 20:25 180 0 gusting 2 25.6
2015-Aug-03 20:10 181 0 gusting 5 25.6
2015-Aug-03 19:55 176 2 gusting 5 25.6
2015-Aug-03 19:40 178 0 gusting 4 25.6
2015-Aug-03 19:25 181 0 gusting 4 26.1
2015-Aug-03 19:10 182 1 gusting 5 26.1
2015-Aug-03 18:55 178 2 gusting 5 26.7
2015-Aug-03 18:40 151 1 gusting 5 27.2
2015-Aug-03 18:25 178 2 gusting 6 27.8
2015-Aug-03 18:10 184 3 gusting 6 27.8
2015-Aug-03 17:55 185 2 gusting 6 28.3
2015-Aug-03 17:39 175 3 gusting 6 28.9
2015-Aug-03 17:24 163 3 gusting 7 28.9
2015-Aug-03 17:09 163 1 gusting 5 29.4
2015-Aug-03 16:54 145 3 gusting 7 29.4
2015-Aug-03 16:39 121 4 gusting 7 28.9
2015-Aug-03 16:24 145 3 gusting 6 29.4
2015-Aug-03 16:09 119 1 gusting 7 29.4
2015-Aug-03 15:54 134 5 gusting 7 29.4
2015-Aug-03 15:39 088 4 gusting 8 28.9
2015-Aug-03 15:26 087 4 gusting 7 28.9
2015-Aug-03 15:09 146 3 gusting 8 28.9
2015-Aug-03 14:54 113 2 gusting 7 28.9
2015-Aug-03 14:39 053 2 gusting 8 28.9
2015-Aug-03 14:24 117 5 gusting 8 28.9
2015-Aug-03 14:09 122 4 gusting 6 28.9
2015-Aug-03 13:54 113 4 gusting 8 28.9
2015-Aug-03 13:39 090 2 gusting 6 29.4
2015-Aug-03 13:24 119 2 gusting 6 29.4
2015-Aug-03 13:09 118 2 gusting 6 29.4
2015-Aug-03 12:54 132 2 gusting 6 29.4
2015-Aug-03 12:39 076 2 gusting 6 30.6
2015-Aug-03 12:24 071 0 gusting 6 30.6
2015-Aug-03 12:09 096 1 gusting 6 30.0
2015-Aug-03 11:54 097 1 gusting 6 30.0
2015-Aug-03 11:39 065 2 gusting 6 30.6
2015-Aug-03 11:24 073 1 gusting 4 30.0
2015-Aug-03 11:09 059 1 gusting 5 31.1
2015-Aug-03 10:54 073 1 gusting 5 30.6
2015-Aug-03 10:39 086 1 gusting 4 31.1
2015-Aug-03 10:24 109 0 gusting 5 30.6
2015-Aug-03 10:09 115 0 gusting 5 29.4
2015-Aug-03 09:54 115 0 gusting 6 29.4
2015-Aug-03 09:39 066 2 gusting 6 30.0
2015-Aug-03 09:24 101 1 gusting 5 30.0
2015-Aug-03 09:09 137 0 gusting 4 29.4
2015-Aug-03 08:54 140 1 gusting 4 30.6
2015-Aug-03 08:39 156 1 gusting 4 30.6
2015-Aug-03 08:24 156 1 gusting 4 30.0
2015-Aug-03 08:10 156 29.4